星链-11441 (STARLINK-11441)

导读 | 星芒AI

STARLINK-11441 是 SpaceX 星链(Starlink)卫星互联网项目中的一颗低轨通信卫星。该卫星属于星链计划的第二批任务(5-1)部署的卫星之一,于2019年发射。它运行在约550公里高的近地轨道,旨在为全球用户提供高速互联网服务。星链项目计划发射数千颗卫星,构建覆盖全球的宽带网络,尤其服务于偏远地区。STARLINK-11441 与其他星链卫星共同组成星座,支持低延迟、高带宽的通信连接。

基本信息
目录编号:
62413
目录名称:
STARLINK-11441
国际标识:
2024-249E
轨道中心:
EARTH
卫星名称:
星链-11441
卫星全名:
星链-11441 (STARLINK-11441)
卫星状态:
在轨 (已飞行363 天)
发射日期:
2024-12-23 UTC
国别 :
美国 (US)
星等 :
--
轨道信息
数据来源 国际轨道数据
星历时间: 2025-12-21T11:55:23+0800
17小时前
查看轨道信息
半长轴: 6734.501km
偏心率: 0.0001801
轨道倾角: 43.000°
近地点辐角 270.331°
升交点赤经 280.704°
平近点角 89.735°
近地点: 355.151km
远地点: 357.577km
周期: 91.668分钟
每日圈数: 15.708862
详细信息
固有亮度:
5
最大亮度:
2.5
卫星平台:
Starlink V1.0
覆盖范围:
全球
运营商:
太空探索技术公司
运营商所在国:
美国
制造商(研发单位):
太空探索技术公司
制造商所在国:
美国
使用方式:
暂无
卫星简介
Starlink 计划是 SpaceX 推出的全球卫星互联网项目,通过发射低轨道卫星,为全球尤其是偏远地区提供高速、低延迟的互联网服务。自 2019 年起,Starlink 已部署数千颗卫星,旨在缩小全球数字鸿沟,推动互联网普及。该项目还为军事、航空等行业提供通信支持,带来广泛经济效益。
2D轨道图
3D轨道图
轨道高度分析图
轨道倾角分析图
轨道综合分析图
查看轨道综合分析图